Year,Month,Day,Hour,Minute,Value (Times are PST for windspeed in km/hr)
2017,05,05,00,00,0.00
2017,05,05,00,01,0.00
2017,05,05,00,02,0.00
2017,05,05,00,03,0.00
2017,05,05,00,04,0.00
2017,05,05,00,05,0.00
2017,05,05,00,06,0.20
2017,05,05,00,07,1.00
2017,05,05,00,08,2.10
2017,05,05,00,09,0.90
2017,05,05,00,10,0.50
2017,05,05,00,11,0.50
2017,05,05,00,12,0.00
2017,05,05,00,13,0.00
2017,05,05,00,14,0.00
2017,05,05,00,15,0.00
2017,05,05,00,16,0.60
2017,05,05,00,17,2.00
2017,05,05,00,18,0.50
2017,05,05,00,19,0.70
2017,05,05,00,20,1.50
2017,05,05,00,21,5.00
2017,05,05,00,22,3.50
2017,05,05,00,23,1.60
2017,05,05,00,24,2.30
2017,05,05,00,25,3.10
2017,05,05,00,26,0.50
2017,05,05,00,27,0.10
2017,05,05,00,28,3.30
2017,05,05,00,29,1.30
2017,05,05,00,30,3.60
2017,05,05,00,31,2.40
2017,05,05,00,32,2.40
2017,05,05,00,33,0.50
2017,05,05,00,34,2.40
2017,05,05,00,35,0.70
2017,05,05,00,36,1.70
2017,05,05,00,37,1.30
2017,05,05,00,38,5.00
2017,05,05,00,39,1.50
2017,05,05,00,40,1.60
2017,05,05,00,41,3.00
2017,05,05,00,42,4.20
2017,05,05,00,43,3.10
2017,05,05,00,44,0.50
2017,05,05,00,45,1.70
2017,05,05,00,46,0.90
2017,05,05,00,47,1.60
2017,05,05,00,48,0.00
2017,05,05,00,49,0.00
2017,05,05,00,50,0.00
2017,05,05,00,51,0.00
2017,05,05,00,52,0.50
2017,05,05,00,53,0.80
2017,05,05,00,54,0.40
2017,05,05,00,55,0.00
2017,05,05,00,56,0.20
2017,05,05,00,57,0.20
2017,05,05,00,58,0.00
2017,05,05,00,59,0.00
2017,05,05,01,00,0.00
2017,05,05,01,01,0.00
2017,05,05,01,02,0.00
2017,05,05,01,03,0.00
2017,05,05,01,04,0.10
2017,05,05,01,05,0.40
2017,05,05,01,06,0.10
2017,05,05,01,07,0.00
2017,05,05,01,08,0.00
2017,05,05,01,09,0.00
2017,05,05,01,10,0.00
2017,05,05,01,11,0.00
2017,05,05,01,12,0.00
2017,05,05,01,13,0.00
2017,05,05,01,14,0.00
2017,05,05,01,15,0.00
2017,05,05,01,16,0.00
2017,05,05,01,17,0.00
2017,05,05,01,18,0.00
2017,05,05,01,19,0.00
2017,05,05,01,20,0.00
2017,05,05,01,21,0.00
2017,05,05,01,22,0.00
2017,05,05,01,23,0.00
2017,05,05,01,24,0.00
2017,05,05,01,25,0.00
2017,05,05,01,26,0.00
2017,05,05,01,27,0.00
2017,05,05,01,28,0.00
2017,05,05,01,29,0.00
2017,05,05,01,30,0.00
2017,05,05,01,31,0.00
2017,05,05,01,32,0.00
2017,05,05,01,33,0.00
2017,05,05,01,34,0.00
2017,05,05,01,35,0.00
2017,05,05,01,36,0.00
2017,05,05,01,37,0.00
2017,05,05,01,38,0.00
2017,05,05,01,39,0.00
2017,05,05,01,40,4.60
2017,05,05,01,41,5.30
2017,05,05,01,42,4.60
2017,05,05,01,43,2.30
2017,05,05,01,44,1.90
2017,05,05,01,45,0.60
2017,05,05,01,46,0.10
2017,05,05,01,47,0.10
2017,05,05,01,48,0.60
2017,05,05,01,49,0.70
2017,05,05,01,50,0.00
2017,05,05,01,51,0.30
2017,05,05,01,52,0.30
2017,05,05,01,53,0.00
2017,05,05,01,54,0.00
2017,05,05,01,55,0.00
2017,05,05,01,56,0.00
2017,05,05,01,57,0.00
2017,05,05,01,58,0.00
2017,05,05,01,59,0.00
2017,05,05,02,00,0.00
2017,05,05,02,01,0.70
2017,05,05,02,02,0.20
2017,05,05,02,03,0.00
2017,05,05,02,04,0.00
2017,05,05,02,05,0.00
2017,05,05,02,06,0.00
2017,05,05,02,07,0.00
2017,05,05,02,08,0.00
2017,05,05,02,09,0.40
2017,05,05,02,10,0.70
2017,05,05,02,11,0.00
2017,05,05,02,12,0.00
2017,05,05,02,13,0.00
2017,05,05,02,14,0.00
2017,05,05,02,15,0.00
2017,05,05,02,16,0.00
2017,05,05,02,17,0.00
2017,05,05,02,18,0.00
2017,05,05,02,19,0.00
2017,05,05,02,20,0.00
2017,05,05,02,21,0.00
2017,05,05,02,22,0.00
2017,05,05,02,23,0.00
2017,05,05,02,24,0.00
2017,05,05,02,25,0.00
2017,05,05,02,26,0.00
2017,05,05,02,27,0.00
2017,05,05,02,28,0.00
2017,05,05,02,29,0.00
2017,05,05,02,30,0.00
2017,05,05,02,31,0.00
2017,05,05,02,32,0.00
2017,05,05,02,33,0.00
2017,05,05,02,34,0.00
2017,05,05,02,35,0.00
2017,05,05,02,36,0.00
2017,05,05,02,37,0.00
2017,05,05,02,38,0.60
2017,05,05,02,39,3.10
2017,05,05,02,40,0.40
2017,05,05,02,41,0.00
2017,05,05,02,42,0.00
2017,05,05,02,43,0.00
2017,05,05,02,44,0.00
2017,05,05,02,45,0.00
2017,05,05,02,46,0.00
2017,05,05,02,47,0.00
2017,05,05,02,48,0.00
2017,05,05,02,49,0.00
2017,05,05,02,50,0.00
2017,05,05,02,51,0.00
2017,05,05,02,52,0.00
2017,05,05,02,53,0.00
2017,05,05,02,54,0.00
2017,05,05,02,55,0.00
2017,05,05,02,56,0.00
2017,05,05,02,57,0.00
2017,05,05,02,58,0.00
2017,05,05,02,59,0.00
2017,05,05,03,00,0.00
2017,05,05,03,01,0.00
2017,05,05,03,02,0.00
2017,05,05,03,03,0.00
2017,05,05,03,04,0.00
2017,05,05,03,05,0.00
2017,05,05,03,06,0.00
2017,05,05,03,07,0.00
2017,05,05,03,08,0.00
2017,05,05,03,09,0.00
2017,05,05,03,10,0.00
2017,05,05,03,11,0.00
2017,05,05,03,12,0.00
2017,05,05,03,13,0.00
2017,05,05,03,14,0.00
2017,05,05,03,15,0.00
2017,05,05,03,16,0.00
2017,05,05,03,17,0.00
2017,05,05,03,18,0.00
2017,05,05,03,19,0.00
2017,05,05,03,20,0.00
2017,05,05,03,21,0.00
2017,05,05,03,22,0.00
2017,05,05,03,23,0.00
2017,05,05,03,24,0.00
2017,05,05,03,25,0.00
2017,05,05,03,26,0.00
2017,05,05,03,27,0.00
2017,05,05,03,28,0.00
2017,05,05,03,29,0.00
2017,05,05,03,30,0.00
2017,05,05,03,31,0.00
2017,05,05,03,32,0.00
2017,05,05,03,33,0.00
2017,05,05,03,34,0.40
2017,05,05,03,35,2.50
2017,05,05,03,36,1.00
2017,05,05,03,37,0.30
2017,05,05,03,38,1.60
2017,05,05,03,39,0.00
2017,05,05,03,40,0.00
2017,05,05,03,41,0.00
2017,05,05,03,42,0.00
2017,05,05,03,43,0.00
2017,05,05,03,44,0.00
2017,05,05,03,45,0.00
2017,05,05,03,46,0.00
2017,05,05,03,47,0.00
2017,05,05,03,48,0.00
2017,05,05,03,49,0.00
2017,05,05,03,50,0.00
2017,05,05,03,51,0.00
2017,05,05,03,52,0.00
2017,05,05,03,53,0.00
2017,05,05,03,54,0.00
2017,05,05,03,55,0.00
2017,05,05,03,56,0.00
2017,05,05,03,57,0.00
2017,05,05,03,58,0.00
2017,05,05,03,59,0.00
2017,05,05,04,00,1.90
2017,05,05,04,01,1.40
2017,05,05,04,02,0.00
2017,05,05,04,03,0.00
2017,05,05,04,04,0.00
2017,05,05,04,05,0.00
2017,05,05,04,06,0.00
2017,05,05,04,07,2.40
2017,05,05,04,08,3.40
2017,05,05,04,09,0.40
2017,05,05,04,10,0.00
2017,05,05,04,11,0.00
2017,05,05,04,12,0.20
2017,05,05,04,13,0.00
2017,05,05,04,14,0.00
2017,05,05,04,15,0.70
2017,05,05,04,16,0.20
2017,05,05,04,17,0.20
2017,05,05,04,18,0.90
2017,05,05,04,19,0.20
2017,05,05,04,20,0.00
2017,05,05,04,21,0.30
2017,05,05,04,22,0.20
2017,05,05,04,23,0.00
2017,05,05,04,24,0.80
2017,05,05,04,25,0.90
2017,05,05,04,26,0.00
2017,05,05,04,27,0.00
2017,05,05,04,28,0.00
2017,05,05,04,29,0.00
2017,05,05,04,30,0.00
2017,05,05,04,31,0.00
2017,05,05,04,32,0.00
2017,05,05,04,33,0.00
2017,05,05,04,34,0.00
2017,05,05,04,35,0.00
2017,05,05,04,36,0.00
2017,05,05,04,37,0.00
2017,05,05,04,38,0.00
2017,05,05,04,39,0.00
2017,05,05,04,40,0.00
2017,05,05,04,41,0.00
2017,05,05,04,42,0.00
2017,05,05,04,43,0.00
2017,05,05,04,44,0.00
2017,05,05,04,45,0.00
2017,05,05,04,46,0.00
2017,05,05,04,47,0.00
2017,05,05,04,48,0.00
2017,05,05,04,49,0.00
2017,05,05,04,50,0.20
2017,05,05,04,51,0.30
2017,05,05,04,52,0.10
2017,05,05,04,53,0.00
2017,05,05,04,54,0.00
2017,05,05,04,55,0.10
2017,05,05,04,56,0.00
2017,05,05,04,57,0.00
2017,05,05,04,58,0.00
2017,05,05,04,59,0.00
2017,05,05,05,00,0.00
2017,05,05,05,01,0.00
2017,05,05,05,02,0.00
2017,05,05,05,03,0.00
2017,05,05,05,04,0.00
2017,05,05,05,05,0.00
2017,05,05,05,06,0.00
2017,05,05,05,07,0.00
2017,05,05,05,08,0.00
2017,05,05,05,09,0.00
2017,05,05,05,10,0.00
2017,05,05,05,11,0.00
2017,05,05,05,12,0.00
2017,05,05,05,13,0.00
2017,05,05,05,14,0.00
2017,05,05,05,15,0.00
2017,05,05,05,16,0.00
2017,05,05,05,17,0.00
2017,05,05,05,18,0.00
2017,05,05,05,19,0.00
2017,05,05,05,20,0.00
2017,05,05,05,21,0.00
2017,05,05,05,22,0.00
2017,05,05,05,23,0.00
2017,05,05,05,24,0.00
2017,05,05,05,25,0.00
2017,05,05,05,26,0.20
2017,05,05,05,27,0.10
2017,05,05,05,28,0.00
2017,05,05,05,29,0.00
2017,05,05,05,30,0.30
2017,05,05,05,31,1.80
2017,05,05,05,32,0.80
2017,05,05,05,33,0.90
2017,05,05,05,34,0.00
2017,05,05,05,35,0.00
2017,05,05,05,36,0.00
2017,05,05,05,37,0.00
2017,05,05,05,38,0.00
2017,05,05,05,39,0.00
2017,05,05,05,40,0.00
2017,05,05,05,41,0.00
2017,05,05,05,42,0.00
2017,05,05,05,43,0.00
2017,05,05,05,44,0.10
2017,05,05,05,45,2.60
2017,05,05,05,46,1.90
2017,05,05,05,47,0.70
2017,05,05,05,48,4.10
2017,05,05,05,49,0.90
2017,05,05,05,50,0.70
2017,05,05,05,51,0.30
2017,05,05,05,52,5.10
2017,05,05,05,53,6.40
2017,05,05,05,54,1.00
2017,05,05,05,55,0.20
2017,05,05,05,56,1.50
2017,05,05,05,57,1.00
2017,05,05,05,58,4.30
2017,05,05,05,59,5.90
2017,05,05,06,00,0.70
2017,05,05,06,01,6.80
2017,05,05,06,02,6.50
2017,05,05,06,03,4.00
2017,05,05,06,04,4.70
2017,05,05,06,05,5.80
2017,05,05,06,06,10.60
2017,05,05,06,07,5.20
2017,05,05,06,08,11.10
2017,05,05,06,09,12.30
2017,05,05,06,10,6.10
2017,05,05,06,11,5.10
2017,05,05,06,12,3.00
2017,05,05,06,13,0.80
2017,05,05,06,14,0.50
2017,05,05,06,15,5.20
2017,05,05,06,16,5.80
2017,05,05,06,17,1.90
2017,05,05,06,18,2.40
2017,05,05,06,19,4.90
2017,05,05,06,20,3.40
2017,05,05,06,21,7.80
2017,05,05,06,22,7.40
2017,05,05,06,23,7.20
2017,05,05,06,24,6.60
2017,05,05,06,25,2.80
2017,05,05,06,26,4.80
2017,05,05,06,27,8.00
2017,05,05,06,28,9.30
2017,05,05,06,29,12.70
2017,05,05,06,30,6.80
2017,05,05,06,31,5.70
2017,05,05,06,32,0.50
2017,05,05,06,33,1.80
2017,05,05,06,34,6.80
2017,05,05,06,35,4.40
2017,05,05,06,36,4.80
2017,05,05,06,37,2.40
2017,05,05,06,38,3.50
2017,05,05,06,39,4.10
2017,05,05,06,40,3.10
2017,05,05,06,41,6.00
2017,05,05,06,42,5.00
2017,05,05,06,43,1.90
2017,05,05,06,44,0.40
2017,05,05,06,45,0.90
2017,05,05,06,46,0.90
2017,05,05,06,47,6.30
2017,05,05,06,48,3.00
2017,05,05,06,49,3.70
2017,05,05,06,50,5.10
2017,05,05,06,51,1.70
2017,05,05,06,52,2.10
2017,05,05,06,53,2.90
2017,05,05,06,54,1.00
2017,05,05,06,55,0.80
2017,05,05,06,56,1.60
2017,05,05,06,57,1.40
2017,05,05,06,58,2.50
2017,05,05,06,59,3.30
2017,05,05,07,00,2.90
2017,05,05,07,01,0.60
2017,05,05,07,02,1.50
2017,05,05,07,03,1.00
2017,05,05,07,04,0.20
2017,05,05,07,05,0.20
2017,05,05,07,06,0.20
2017,05,05,07,07,0.00
2017,05,05,07,08,0.00
2017,05,05,07,09,0.20
2017,05,05,07,10,5.30
2017,05,05,07,11,9.10
2017,05,05,07,12,5.10
2017,05,05,07,13,4.10
2017,05,05,07,14,1.30
2017,05,05,07,15,0.60
2017,05,05,07,16,0.10
2017,05,05,07,17,0.70
2017,05,05,07,18,1.90
2017,05,05,07,19,0.50
2017,05,05,07,20,1.00
2017,05,05,07,21,2.20
2017,05,05,07,22,9.00
2017,05,05,07,23,2.40
2017,05,05,07,24,2.20
2017,05,05,07,25,4.00
2017,05,05,07,26,5.10
2017,05,05,07,27,4.10
2017,05,05,07,28,9.50
2017,05,05,07,29,5.80
2017,05,05,07,30,3.20
2017,05,05,07,31,0.20
2017,05,05,07,32,0.80
2017,05,05,07,33,8.60
2017,05,05,07,34,2.70
2017,05,05,07,35,0.70
2017,05,05,07,36,1.10
2017,05,05,07,37,2.20
2017,05,05,07,38,3.70
2017,05,05,07,39,6.40
2017,05,05,07,40,6.20
2017,05,05,07,41,1.60
2017,05,05,07,42,6.30
2017,05,05,07,43,5.10
2017,05,05,07,44,14.10
2017,05,05,07,45,2.20
2017,05,05,07,46,1.40
2017,05,05,07,47,3.10
2017,05,05,07,48,4.70
2017,05,05,07,49,0.80
2017,05,05,07,50,2.00
2017,05,05,07,51,2.20
2017,05,05,07,52,5.80
2017,05,05,07,53,3.60
2017,05,05,07,54,6.90
2017,05,05,07,55,10.10
2017,05,05,07,56,7.60
2017,05,05,07,57,3.30
2017,05,05,07,58,4.50
2017,05,05,07,59,2.40
2017,05,05,08,00,6.00
2017,05,05,08,01,5.50
2017,05,05,08,02,3.00
2017,05,05,08,03,1.80
2017,05,05,08,04,7.60
2017,05,05,08,05,6.70
2017,05,05,08,06,10.00
2017,05,05,08,07,7.00
2017,05,05,08,08,4.40
2017,05,05,08,09,1.10
2017,05,05,08,10,2.90
2017,05,05,08,11,1.90
2017,05,05,08,12,0.30
2017,05,05,08,13,2.10
2017,05,05,08,14,1.80
2017,05,05,08,15,1.70
2017,05,05,08,16,2.70
2017,05,05,08,17,2.50
2017,05,05,08,18,3.30
2017,05,05,08,19,3.10
2017,05,05,08,20,6.40
2017,05,05,08,21,5.50
2017,05,05,08,22,2.80
2017,05,05,08,23,1.90
2017,05,05,08,24,4.10
2017,05,05,08,25,7.50
2017,05,05,08,26,8.90
2017,05,05,08,27,5.00
2017,05,05,08,28,2.30
2017,05,05,08,29,1.30
2017,05,05,08,30,0.60
2017,05,05,08,31,6.90
2017,05,05,08,32,5.90
2017,05,05,08,33,2.00
2017,05,05,08,34,2.60
2017,05,05,08,35,2.40
2017,05,05,08,36,2.10
2017,05,05,08,37,4.40
2017,05,05,08,38,7.70
2017,05,05,08,39,11.20
2017,05,05,08,40,8.60
2017,05,05,08,41,4.70
2017,05,05,08,42,4.80
2017,05,05,08,43,2.90
2017,05,05,08,44,10.30
2017,05,05,08,45,3.70
2017,05,05,08,46,9.40
2017,05,05,08,47,12.40
2017,05,05,08,48,13.80
2017,05,05,08,49,12.90
2017,05,05,08,50,9.20
2017,05,05,08,51,6.80
2017,05,05,08,52,5.70
2017,05,05,08,53,7.50
2017,05,05,08,54,12.00
2017,05,05,08,55,10.70
2017,05,05,08,56,20.10
2017,05,05,08,57,14.80
2017,05,05,08,58,10.30
2017,05,05,08,59,6.50
2017,05,05,09,00,1.80
2017,05,05,09,01,6.40
2017,05,05,09,02,8.10
2017,05,05,09,03,9.80
2017,05,05,09,04,15.50
2017,05,05,09,05,4.20
2017,05,05,09,06,8.70
2017,05,05,09,07,10.20
2017,05,05,09,08,6.40
2017,05,05,09,09,26.20
2017,05,05,09,10,18.60
2017,05,05,09,11,9.00
2017,05,05,09,12,13.80
2017,05,05,09,13,10.80
2017,05,05,09,14,7.90
2017,05,05,09,15,7.40
2017,05,05,09,16,15.60
2017,05,05,09,17,8.60
2017,05,05,09,18,7.60
2017,05,05,09,19,9.00
2017,05,05,09,20,8.40
2017,05,05,09,21,15.30
2017,05,05,09,22,8.30
2017,05,05,09,23,7.50
2017,05,05,09,24,6.80
2017,05,05,09,25,4.70
2017,05,05,09,26,5.30
2017,05,05,09,27,7.30
2017,05,05,09,28,5.60
2017,05,05,09,29,6.00
2017,05,05,09,30,12.40
2017,05,05,09,31,18.50
2017,05,05,09,32,9.50
2017,05,05,09,33,13.10
2017,05,05,09,34,19.30
2017,05,05,09,35,19.70
2017,05,05,09,36,16.80
2017,05,05,09,37,14.00
2017,05,05,09,38,20.00
2017,05,05,09,39,9.60
2017,05,05,09,40,14.50
2017,05,05,09,41,7.50
2017,05,05,09,42,11.20
2017,05,05,09,43,12.10
2017,05,05,09,44,13.10
2017,05,05,09,45,9.30
2017,05,05,09,46,22.40
2017,05,05,09,47,35.10
2017,05,05,09,48,29.30
2017,05,05,09,49,24.40
2017,05,05,09,50,34.00
2017,05,05,09,51,24.10
2017,05,05,09,52,18.40
2017,05,05,09,53,14.20
2017,05,05,09,54,23.50
2017,05,05,09,55,20.30
2017,05,05,09,56,21.70
2017,05,05,09,57,18.10
2017,05,05,09,58,18.00
2017,05,05,09,59,14.90
2017,05,05,10,00,14.70
2017,05,05,10,01,16.60
2017,05,05,10,02,15.80
2017,05,05,10,03,21.00
2017,05,05,10,04,20.40
2017,05,05,10,05,28.30
2017,05,05,10,06,22.40
2017,05,05,10,07,13.70
2017,05,05,10,08,23.90
2017,05,05,10,09,24.00
2017,05,05,10,10,24.10
2017,05,05,10,11,19.10
2017,05,05,10,12,21.90
2017,05,05,10,13,14.60
2017,05,05,10,14,10.40
2017,05,05,10,15,11.60
2017,05,05,10,16,23.80
2017,05,05,10,17,21.10
2017,05,05,10,18,16.30
2017,05,05,10,19,20.00
2017,05,05,10,20,16.00
2017,05,05,10,21,21.00
2017,05,05,10,22,14.60
2017,05,05,10,23,19.20
2017,05,05,10,24,25.30
2017,05,05,10,25,27.20
2017,05,05,10,26,24.70
2017,05,05,10,27,22.20
2017,05,05,10,28,24.10
2017,05,05,10,29,20.70
2017,05,05,10,30,25.80
2017,05,05,10,31,12.00
2017,05,05,10,32,17.70
2017,05,05,10,33,11.50
2017,05,05,10,34,21.90
2017,05,05,10,35,24.80
2017,05,05,10,36,27.30
2017,05,05,10,37,16.90
2017,05,05,10,38,12.00
2017,05,05,10,39,11.40
2017,05,05,10,40,18.10
2017,05,05,10,41,20.40
2017,05,05,10,42,16.40
2017,05,05,10,43,7.60
2017,05,05,10,44,7.80
2017,05,05,10,45,5.00
2017,05,05,10,46,7.30
2017,05,05,10,47,11.00
2017,05,05,10,48,7.70
2017,05,05,10,49,6.10
2017,05,05,10,50,21.30
2017,05,05,10,51,20.80
2017,05,05,10,52,9.80
2017,05,05,10,53,18.50
2017,05,05,10,54,12.80
2017,05,05,10,55,16.20
2017,05,05,10,56,15.60
2017,05,05,10,57,9.00
2017,05,05,10,58,12.00
2017,05,05,10,59,21.40
2017,05,05,11,00,21.00
2017,05,05,11,01,18.20
2017,05,05,11,02,14.20
2017,05,05,11,03,13.40
2017,05,05,11,04,9.60
2017,05,05,11,05,9.70
2017,05,05,11,06,10.30
2017,05,05,11,07,16.30
2017,05,05,11,08,12.90
2017,05,05,11,09,7.70
2017,05,05,11,10,11.40
2017,05,05,11,11,13.80
2017,05,05,11,12,11.50
2017,05,05,11,13,15.10
2017,05,05,11,14,8.30
2017,05,05,11,15,10.50
2017,05,05,11,16,10.00
2017,05,05,11,17,12.10
2017,05,05,11,18,7.30
2017,05,05,11,19,7.30
2017,05,05,11,20,15.20
2017,05,05,11,21,12.00
2017,05,05,11,22,20.60
2017,05,05,11,23,25.60
2017,05,05,11,24,13.50
2017,05,05,11,25,10.20
2017,05,05,11,26,15.40
2017,05,05,11,27,16.30
2017,05,05,11,28,14.00
2017,05,05,11,29,16.30
2017,05,05,11,30,16.60
2017,05,05,11,31,11.90
2017,05,05,11,32,10.30
2017,05,05,11,33,10.10
2017,05,05,11,34,8.70
2017,05,05,11,35,5.90
2017,05,05,11,36,15.00
2017,05,05,11,37,14.20
2017,05,05,11,38,13.40
2017,05,05,11,39,12.60
2017,05,05,11,40,21.20
2017,05,05,11,41,15.20
2017,05,05,11,42,11.60
2017,05,05,11,43,11.60
2017,05,05,11,44,15.20
2017,05,05,11,45,8.90
2017,05,05,11,46,16.70
2017,05,05,11,47,20.00
2017,05,05,11,48,14.90
2017,05,05,11,49,10.80
2017,05,05,11,50,16.40
2017,05,05,11,51,14.70
2017,05,05,11,52,11.10
2017,05,05,11,53,13.00
2017,05,05,11,54,7.50
2017,05,05,11,55,5.30
2017,05,05,11,56,14.70
2017,05,05,11,57,7.60
2017,05,05,11,58,17.10
2017,05,05,11,59,19.80
2017,05,05,12,00,14.20
2017,05,05,12,01,8.90
2017,05,05,12,02,5.30
2017,05,05,12,03,13.30
2017,05,05,12,04,9.50
2017,05,05,12,05,11.60
2017,05,05,12,06,16.00
2017,05,05,12,07,5.90
2017,05,05,12,08,7.00
2017,05,05,12,09,22.80
2017,05,05,12,10,18.60
2017,05,05,12,11,20.50
2017,05,05,12,12,19.20
2017,05,05,12,13,17.70
2017,05,05,12,14,15.30
2017,05,05,12,15,17.50
2017,05,05,12,16,19.00
2017,05,05,12,17,8.60
2017,05,05,12,18,17.60
2017,05,05,12,19,20.20
2017,05,05,12,20,21.20
2017,05,05,12,21,17.90
2017,05,05,12,22,27.80
2017,05,05,12,23,20.10
2017,05,05,12,24,17.70
2017,05,05,12,25,10.90
2017,05,05,12,26,9.50
2017,05,05,12,27,11.20
2017,05,05,12,28,14.30
2017,05,05,12,29,13.70
2017,05,05,12,30,13.00
2017,05,05,12,31,16.30
2017,05,05,12,32,18.00
2017,05,05,12,33,17.00
2017,05,05,12,34,10.70
2017,05,05,12,35,13.50
2017,05,05,12,36,9.90
2017,05,05,12,37,10.30
2017,05,05,12,38,9.00
2017,05,05,12,39,6.30
2017,05,05,12,40,15.50
2017,05,05,12,41,20.60
2017,05,05,12,42,24.00
2017,05,05,12,43,15.60
2017,05,05,12,44,18.40
2017,05,05,12,45,18.00
2017,05,05,12,46,17.10
2017,05,05,12,47,18.70
2017,05,05,12,48,24.70
2017,05,05,12,49,16.00
2017,05,05,12,50,17.70
2017,05,05,12,51,24.90
2017,05,05,12,52,17.70
2017,05,05,12,53,18.60
2017,05,05,12,54,17.10
2017,05,05,12,55,31.10
2017,05,05,12,56,24.30
2017,05,05,12,57,16.70
2017,05,05,12,58,14.60
2017,05,05,12,59,15.90
2017,05,05,13,00,26.60
2017,05,05,13,01,21.90
2017,05,05,13,02,26.10
2017,05,05,13,03,20.10
2017,05,05,13,04,20.20
2017,05,05,13,05,17.60
2017,05,05,13,06,18.10
2017,05,05,13,07,20.90
2017,05,05,13,08,26.50
2017,05,05,13,09,14.40
2017,05,05,13,10,11.40
2017,05,05,13,11,21.20
2017,05,05,13,12,20.70
2017,05,05,13,13,10.10
2017,05,05,13,14,9.30
2017,05,05,13,15,8.50
2017,05,05,13,16,16.00
2017,05,05,13,17,15.10
2017,05,05,13,18,18.50
2017,05,05,13,19,10.50
2017,05,05,13,20,15.80
2017,05,05,13,21,29.30
2017,05,05,13,22,23.00
2017,05,05,13,23,11.80
2017,05,05,13,24,26.40
2017,05,05,13,25,18.40
2017,05,05,13,26,17.90
2017,05,05,13,27,14.60
2017,05,05,13,28,16.70
2017,05,05,13,29,15.80
2017,05,05,13,30,22.40
2017,05,05,13,31,24.80
2017,05,05,13,32,20.20
2017,05,05,13,33,19.10
2017,05,05,13,34,18.50
2017,05,05,13,35,14.80
2017,05,05,13,36,19.30
2017,05,05,13,37,11.30
2017,05,05,13,38,12.90
2017,05,05,13,39,14.50
2017,05,05,13,40,15.10
2017,05,05,13,41,17.70
2017,05,05,13,42,22.50
2017,05,05,13,43,10.90
2017,05,05,13,44,7.20
2017,05,05,13,45,22.00
2017,05,05,13,46,16.30
2017,05,05,13,47,14.40
2017,05,05,13,48,19.50
2017,05,05,13,49,22.70
2017,05,05,13,50,15.90
2017,05,05,13,51,9.60
2017,05,05,13,52,16.30
2017,05,05,13,53,30.20
2017,05,05,13,54,25.70
2017,05,05,13,55,15.00
2017,05,05,13,56,18.40
2017,05,05,13,57,21.50
2017,05,05,13,58,9.20
2017,05,05,13,59,23.40
2017,05,05,14,00,16.40
2017,05,05,14,01,18.20
2017,05,05,14,02,14.00
2017,05,05,14,03,15.50
2017,05,05,14,04,13.60
2017,05,05,14,05,19.30
2017,05,05,14,06,13.90
2017,05,05,14,07,14.70
2017,05,05,14,08,11.20
2017,05,05,14,09,8.80
2017,05,05,14,10,10.70
2017,05,05,14,11,13.70
2017,05,05,14,12,10.70
2017,05,05,14,13,12.80
2017,05,05,14,14,19.80
2017,05,05,14,15,22.10
2017,05,05,14,16,25.80
2017,05,05,14,17,27.30
2017,05,05,14,18,28.40
2017,05,05,14,19,21.60
2017,05,05,14,20,16.50
2017,05,05,14,21,26.00
2017,05,05,14,22,31.10
2017,05,05,14,23,24.30
2017,05,05,14,24,32.90
2017,05,05,14,25,20.30
2017,05,05,14,26,23.30
2017,05,05,14,27,18.80
2017,05,05,14,28,16.70
2017,05,05,14,29,20.50
2017,05,05,14,30,19.50
2017,05,05,14,31,25.00
2017,05,05,14,32,27.50
2017,05,05,14,33,26.80
2017,05,05,14,34,22.40
2017,05,05,14,35,17.50
2017,05,05,14,36,17.40
2017,05,05,14,37,22.90
2017,05,05,14,38,17.10
2017,05,05,14,39,18.10
2017,05,05,14,40,21.50
2017,05,05,14,41,19.40
2017,05,05,14,42,22.20
2017,05,05,14,43,21.20
2017,05,05,14,44,24.10
2017,05,05,14,45,14.10
2017,05,05,14,46,24.00
2017,05,05,14,47,21.00
2017,05,05,14,48,29.40
2017,05,05,14,49,26.20
2017,05,05,14,50,22.20
2017,05,05,14,51,16.30
2017,05,05,14,52,12.20
2017,05,05,14,53,15.80
2017,05,05,14,54,21.60
2017,05,05,14,55,22.90
2017,05,05,14,56,27.70
2017,05,05,14,57,37.10
2017,05,05,14,58,21.20
2017,05,05,14,59,20.10
2017,05,05,15,00,14.00
2017,05,05,15,01,17.30
2017,05,05,15,02,14.30
2017,05,05,15,03,14.90
2017,05,05,15,04,16.30
2017,05,05,15,05,13.20
2017,05,05,15,06,18.60
2017,05,05,15,07,12.50
2017,05,05,15,08,12.90
2017,05,05,15,09,15.30
2017,05,05,15,10,17.40
2017,05,05,15,11,15.10
2017,05,05,15,12,12.30
2017,05,05,15,13,13.50
2017,05,05,15,14,16.10
2017,05,05,15,15,21.50
2017,05,05,15,16,17.40
2017,05,05,15,17,13.70
2017,05,05,15,18,11.10
2017,05,05,15,19,12.60
2017,05,05,15,20,10.30
2017,05,05,15,21,4.10
2017,05,05,15,22,11.50
2017,05,05,15,23,14.70
2017,05,05,15,24,5.70
2017,05,05,15,25,16.20
2017,05,05,15,26,20.20
2017,05,05,15,27,20.20
2017,05,05,15,28,19.80
2017,05,05,15,29,23.00
2017,05,05,15,30,19.90
2017,05,05,15,31,17.20
2017,05,05,15,32,24.40
2017,05,05,15,33,25.30
2017,05,05,15,34,20.10
2017,05,05,15,35,17.60
2017,05,05,15,36,17.00
2017,05,05,15,37,22.70
2017,05,05,15,38,11.00
2017,05,05,15,39,14.70
2017,05,05,15,40,14.80
2017,05,05,15,41,10.90
2017,05,05,15,42,8.80
2017,05,05,15,43,18.20
2017,05,05,15,44,21.60
2017,05,05,15,45,15.40
2017,05,05,15,46,9.40
2017,05,05,15,47,9.20
2017,05,05,15,48,12.90
2017,05,05,15,49,10.00
2017,05,05,15,50,17.30
2017,05,05,15,51,12.40
2017,05,05,15,52,11.90
2017,05,05,15,53,16.90
2017,05,05,15,54,20.20
2017,05,05,15,55,11.70
2017,05,05,15,56,9.40
2017,05,05,15,57,10.10
2017,05,05,15,58,21.60
2017,05,05,15,59,23.30
2017,05,05,16,00,15.30
2017,05,05,16,01,20.20
2017,05,05,16,02,27.60
2017,05,05,16,03,22.90
2017,05,05,16,04,22.70
2017,05,05,16,05,23.40
2017,05,05,16,06,22.10
2017,05,05,16,07,23.50
2017,05,05,16,08,14.80
2017,05,05,16,09,25.90
2017,05,05,16,10,21.80
2017,05,05,16,11,16.90
2017,05,05,16,12,19.60
2017,05,05,16,13,16.30
2017,05,05,16,14,12.10
2017,05,05,16,15,7.50
2017,05,05,16,16,8.10
2017,05,05,16,17,7.00
2017,05,05,16,18,9.80
2017,05,05,16,19,14.90
2017,05,05,16,20,15.30
2017,05,05,16,21,19.10
2017,05,05,16,22,18.10
2017,05,05,16,23,15.60
2017,05,05,16,24,13.80
2017,05,05,16,25,18.80
2017,05,05,16,26,13.20
2017,05,05,16,27,10.70
2017,05,05,16,28,16.00
2017,05,05,16,29,24.10
2017,05,05,16,30,11.10
2017,05,05,16,31,15.80
2017,05,05,16,32,13.00
2017,05,05,16,33,12.80
2017,05,05,16,34,9.80
2017,05,05,16,35,10.20
2017,05,05,16,36,6.70
2017,05,05,16,37,16.10
2017,05,05,16,38,11.10
2017,05,05,16,39,13.70
2017,05,05,16,40,7.40
2017,05,05,16,41,9.10
2017,05,05,16,42,18.50
2017,05,05,16,43,14.10
2017,05,05,16,44,12.70
2017,05,05,16,45,5.70
2017,05,05,16,46,17.50
2017,05,05,16,47,18.60
2017,05,05,16,48,22.20
2017,05,05,16,49,18.40
2017,05,05,16,50,10.90
2017,05,05,16,51,11.10
2017,05,05,16,52,6.80
2017,05,05,16,53,6.90
2017,05,05,16,54,11.40
2017,05,05,16,55,10.50
2017,05,05,16,56,15.20
2017,05,05,16,57,19.80
2017,05,05,16,58,11.40
2017,05,05,16,59,13.40
2017,05,05,17,00,8.70
2017,05,05,17,01,8.20
2017,05,05,17,02,11.10
2017,05,05,17,03,14.70
2017,05,05,17,04,12.50
2017,05,05,17,05,12.10
2017,05,05,17,06,22.60
2017,05,05,17,07,14.50
2017,05,05,17,08,13.00
2017,05,05,17,09,10.10
2017,05,05,17,10,4.60
2017,05,05,17,11,6.90
2017,05,05,17,12,13.00
2017,05,05,17,13,15.80
2017,05,05,17,14,6.90
2017,05,05,17,15,14.60
2017,05,05,17,16,17.60
2017,05,05,17,17,12.90
2017,05,05,17,18,11.60
2017,05,05,17,19,18.70
2017,05,05,17,20,9.70
2017,05,05,17,21,13.20
2017,05,05,17,22,17.40
2017,05,05,17,23,22.30
2017,05,05,17,24,17.20
2017,05,05,17,25,21.90
2017,05,05,17,26,21.50
2017,05,05,17,27,19.60
2017,05,05,17,28,13.40
2017,05,05,17,29,17.40
2017,05,05,17,30,11.10
2017,05,05,17,31,11.00
2017,05,05,17,32,17.00
2017,05,05,17,33,9.20
2017,05,05,17,34,15.50
2017,05,05,17,35,17.20
2017,05,05,17,36,23.50
2017,05,05,17,37,26.60
2017,05,05,17,38,13.20
2017,05,05,17,39,13.90
2017,05,05,17,40,10.40
2017,05,05,17,41,15.50
2017,05,05,17,42,8.70
2017,05,05,17,43,14.50
2017,05,05,17,44,21.40
2017,05,05,17,45,18.80